N34549 CYTR-KSYR

Flight info

Callsign N34549
Flight time 0h 34m
Altitude 5000
Route WACOR
Aircraft BE58/L-SDFGRY/C

Departure

Time 2026-04-28 19:07
Airport CFB Trenton (CYTR)

Arrival

Time 2026-04-28 19:41
Airport Syracuse Hancock International Airport (KSYR)
Time Latitude Longitude Altitude Speed Heading
2026-04-28 18:53 44.11146 -77.52850 280 ft 0 kts 327°
2026-04-28 19:03 44.11174 -77.52873 280 ft 14 kts 332°
2026-04-28 19:03 44.11307 -77.52981 280 ft 27 kts 309°
2026-04-28 19:03 44.11351 -77.52917 280 ft 17 kts 86°
2026-04-28 19:04 44.11422 -77.52790 280 ft 21 kts 11°
2026-04-28 19:04 44.11598 -77.52755 281 ft 26 kts
2026-04-28 19:04 44.11777 -77.52719 281 ft 12 kts 349°
2026-04-28 19:04 44.11738 -77.52802 281 ft 21 kts 228°
2026-04-28 19:05 44.11605 -77.53029 280 ft 26 kts 235°
2026-04-28 19:05 44.11595 -77.53133 280 ft 0 kts 301°
2026-04-28 19:06 44.11596 -77.53134 280 ft 0 kts 302°
2026-04-28 19:06 44.11629 -77.53219 279 ft 20 kts 296°
2026-04-28 19:06 44.11678 -77.53211 279 ft 2 kts 51°
2026-04-28 19:06 44.11946 -77.52756 281 ft 108 kts 51°
2026-04-28 19:07 44.12497 -77.51847 562 ft 133 kts 58°
2026-04-28 19:07 44.13154 -77.50792 1021 ft 146 kts 47°
2026-04-28 19:07 44.13894 -77.49815 1550 ft 152 kts 45°
2026-04-28 19:07 44.14718 -77.48760 1882 ft 168 kts 48°
2026-04-28 19:08 44.15567 -77.47575 2216 ft 177 kts 52°
2026-04-28 19:08 44.15972 -77.46109 2731 ft 164 kts 98°
2026-04-28 19:08 44.15527 -77.44680 3035 ft 164 kts 137°
2026-04-28 19:08 44.14647 -77.43630 3299 ft 167 kts 150°
2026-04-28 19:09 44.13663 -77.42720 3509 ft 171 kts 150°
2026-04-28 19:09 44.12724 -77.41729 3721 ft 168 kts 146°
2026-04-28 19:09 44.11824 -77.40704 3945 ft 167 kts 146°
2026-04-28 19:09 44.10929 -77.39677 4184 ft 167 kts 146°
2026-04-28 19:10 44.10031 -77.38646 4429 ft 168 kts 146°
2026-04-28 19:10 44.09133 -77.37597 4680 ft 169 kts 140°
2026-04-28 19:10 44.08686 -77.36066 4915 ft 180 kts 97°
2026-04-28 19:10 44.08695 -77.34283 5001 ft 191 kts 92°
2026-04-28 19:11 44.08705 -77.32398 5009 ft 197 kts 93°
2026-04-28 19:11 44.08716 -77.30499 5005 ft 201 kts 92°
2026-04-28 19:11 44.08729 -77.28523 5011 ft 203 kts 92°
2026-04-28 19:11 44.08744 -77.26588 5012 ft 203 kts 92°
2026-04-28 19:12 44.08759 -77.24613 5010 ft 206 kts 92°
2026-04-28 19:12 44.08770 -77.22617 5014 ft 206 kts 92°
2026-04-28 19:12 44.08780 -77.20618 5007 ft 207 kts 92°
2026-04-28 19:12 44.08497 -77.18699 5006 ft 201 kts 120°
2026-04-28 19:13 44.07603 -77.17288 5006 ft 192 kts 152°
2026-04-28 19:13 44.06389 -77.16637 5012 ft 188 kts 168°
2026-04-28 19:13 44.05174 -77.15963 5004 ft 190 kts 155°
2026-04-28 19:13 44.04056 -77.14955 5005 ft 192 kts 149°
2026-04-28 19:14 44.02964 -77.13894 5004 ft 192 kts 150°
2026-04-28 19:14 44.01862 -77.12852 5008 ft 192 kts 150°
2026-04-28 19:14 44.00754 -77.11813 5011 ft 192 kts 150°
2026-04-28 19:14 43.99644 -77.10768 5020 ft 193 kts 150°
2026-04-28 19:15 43.98530 -77.09725 4971 ft 190 kts 148°
2026-04-28 19:15 43.97448 -77.08710 5015 ft 187 kts 148°
2026-04-28 19:15 43.96384 -77.07713 5015 ft 187 kts 148°
2026-04-28 19:15 43.95655 -77.07030 5014 ft 187 kts 148°
2026-04-28 19:16 43.94222 -77.05687 5013 ft 187 kts 148°
2026-04-28 19:16 43.93140 -77.04677 5022 ft 188 kts 148°
2026-04-28 19:16 43.92054 -77.03660 5019 ft 188 kts 148°
2026-04-28 19:16 43.90971 -77.02643 5018 ft 188 kts 148°
2026-04-28 19:17 43.89887 -77.01631 5023 ft 188 kts 148°
2026-04-28 19:17 43.88784 -77.00603 5020 ft 192 kts 148°
2026-04-28 19:17 43.87681 -76.99571 5017 ft 190 kts 148°
2026-04-28 19:17 43.86588 -76.98549 5017 ft 189 kts 148°
2026-04-28 19:18 43.85499 -76.97534 5018 ft 188 kts 148°
2026-04-28 19:18 43.84414 -76.96522 5019 ft 188 kts 148°
2026-04-28 19:18 43.83329 -76.95509 5018 ft 188 kts 148°
2026-04-28 19:18 43.82246 -76.94499 5014 ft 188 kts 148°
2026-04-28 19:19 43.81164 -76.93492 5017 ft 187 kts 148°
2026-04-28 19:19 43.80084 -76.92486 5024 ft 188 kts 148°
2026-04-28 19:19 43.78999 -76.91476 5020 ft 188 kts 148°
2026-04-28 19:19 43.77913 -76.90465 5022 ft 188 kts 148°
2026-04-28 19:20 43.76826 -76.89454 5022 ft 188 kts 148°
2026-04-28 19:20 43.75736 -76.88442 5028 ft 189 kts 148°
2026-04-28 19:20 43.74657 -76.87439 5026 ft 189 kts 148°
2026-04-28 19:20 43.73565 -76.86424 5028 ft 189 kts 149°
2026-04-28 19:21 43.72472 -76.85410 5025 ft 189 kts 148°
2026-04-28 19:21 43.71379 -76.84396 5029 ft 189 kts 149°
2026-04-28 19:21 43.70283 -76.83379 5029 ft 190 kts 148°
2026-04-28 19:21 43.69187 -76.82363 5030 ft 190 kts 149°
2026-04-28 19:22 43.68087 -76.81342 5027 ft 191 kts 149°
2026-04-28 19:22 43.67352 -76.80662 5036 ft 193 kts 148°
2026-04-28 19:22 43.65849 -76.79272 5032 ft 195 kts 149°
2026-04-28 19:22 43.64723 -76.78229 5030 ft 195 kts 149°
2026-04-28 19:23 43.63610 -76.77199 5032 ft 195 kts 149°
2026-04-28 19:23 43.62482 -76.76156 5032 ft 195 kts 149°
2026-04-28 19:23 43.61358 -76.75117 5033 ft 195 kts 149°
2026-04-28 19:23 43.60220 -76.74066 5032 ft 195 kts 149°
2026-04-28 19:24 43.59094 -76.73027 5031 ft 195 kts 149°
2026-04-28 19:24 43.57970 -76.71989 5030 ft 195 kts 149°
2026-04-28 19:24 43.56834 -76.70941 5034 ft 195 kts 149°
2026-04-28 19:24 43.55705 -76.69899 5034 ft 195 kts 149°
2026-04-28 19:25 43.54573 -76.68856 5030 ft 195 kts 149°
2026-04-28 19:25 43.53446 -76.67818 5039 ft 195 kts 149°
2026-04-28 19:25 43.52324 -76.66784 5038 ft 195 kts 149°
2026-04-28 19:25 43.51198 -76.65748 5041 ft 195 kts 149°
2026-04-28 19:26 43.50065 -76.64707 5041 ft 195 kts 149°
2026-04-28 19:26 43.48936 -76.63668 5042 ft 196 kts 149°
2026-04-28 19:26 43.47818 -76.62641 5042 ft 196 kts 149°
2026-04-28 19:26 43.46687 -76.61601 5043 ft 196 kts 149°
2026-04-28 19:27 43.45554 -76.60561 5041 ft 196 kts 149°
2026-04-28 19:27 43.44418 -76.59518 5041 ft 197 kts 149°
2026-04-28 19:27 43.43278 -76.58472 5039 ft 197 kts 149°
2026-04-28 19:27 43.42139 -76.57427 5040 ft 197 kts 149°
2026-04-28 19:28 43.40998 -76.56382 5038 ft 197 kts 149°
2026-04-28 19:28 43.39853 -76.55333 5043 ft 197 kts 150°
2026-04-28 19:28 43.38714 -76.54288 5051 ft 197 kts 149°
2026-04-28 19:28 43.37569 -76.53241 5038 ft 197 kts 150°
2026-04-28 19:29 43.36431 -76.52201 5041 ft 197 kts 149°
2026-04-28 19:29 43.35675 -76.51509 5042 ft 197 kts 150°
2026-04-28 19:29 43.34155 -76.50121 5042 ft 195 kts 149°
2026-04-28 19:29 43.33024 -76.49084 5039 ft 196 kts 149°
2026-04-28 19:30 43.31881 -76.48041 5041 ft 197 kts 149°
2026-04-28 19:30 43.30743 -76.47004 5043 ft 197 kts 150°
2026-04-28 19:30 43.29597 -76.45958 5044 ft 197 kts 150°
2026-04-28 19:30 43.28470 -76.44928 5044 ft 197 kts 150°
2026-04-28 19:31 43.27325 -76.43886 5044 ft 197 kts 149°
2026-04-28 19:31 43.26177 -76.42842 5046 ft 198 kts 150°
2026-04-28 19:31 43.25024 -76.41792 4992 ft 201 kts 150°
2026-04-28 19:31 43.23876 -76.40744 4891 ft 195 kts 150°
2026-04-28 19:32 43.22763 -76.39729 4787 ft 191 kts 150°
2026-04-28 19:32 43.21652 -76.38761 4686 ft 187 kts 158°
2026-04-28 19:32 43.20417 -76.38468 4579 ft 178 kts 189°
2026-04-28 19:32 43.19316 -76.39140 4480 ft 174 kts 220°
2026-04-28 19:33 43.18416 -76.40249 4380 ft 175 kts 218°
2026-04-28 19:33 43.17383 -76.41120 4280 ft 173 kts 210°
2026-04-28 19:33 43.16320 -76.41889 4184 ft 173 kts 208°
2026-04-28 19:33 43.15205 -76.42510 4060 ft 174 kts 193°
2026-04-28 19:34 43.13997 -76.42690 3921 ft 175 kts 185°
2026-04-28 19:34 43.12772 -76.42669 3807 ft 176 kts 181°
2026-04-28 19:34 43.11551 -76.42566 3698 ft 175 kts 180°
2026-04-28 19:34 43.10344 -76.42464 3599 ft 173 kts 179°
2026-04-28 19:35 43.09233 -76.41962 3486 ft 180 kts 146°
2026-04-28 19:35 43.08532 -76.40493 3383 ft 186 kts 122°
2026-04-28 19:35 43.08167 -76.38807 3335 ft 191 kts 91°
2026-04-28 19:35 43.08719 -76.37169 3344 ft 197 kts 45°
2026-04-28 19:36 43.09787 -76.35975 3360 ft 200 kts 45°
2026-04-28 19:36 43.10712 -76.34557 3357 ft 199 kts 62°
2026-04-28 19:36 43.11158 -76.32813 3359 ft 196 kts 77°
2026-04-28 19:36 43.11476 -76.31013 3374 ft 184 kts 86°
2026-04-28 19:37 43.11448 -76.29397 3346 ft 159 kts 103°
2026-04-28 19:37 43.11379 -76.28420 3308 ft 152 kts 106°
2026-04-28 19:37 43.11131 -76.26556 3016 ft 146 kts 110°
2026-04-28 19:37 43.10902 -76.25218 2825 ft 142 kts 112°
2026-04-28 19:38 43.10646 -76.23936 2645 ft 137 kts 115°
2026-04-28 19:38 43.10516 -76.22763 2376 ft 123 kts 92°
2026-04-28 19:38 43.10607 -76.21640 2054 ft 114 kts 92°
2026-04-28 19:38 43.10641 -76.20634 1813 ft 99 kts 96°
2026-04-28 19:39 43.10659 -76.19739 1601 ft 92 kts 97°
2026-04-28 19:39 43.10623 -76.18891 1473 ft 92 kts 99°
2026-04-28 19:39 43.10672 -76.18016 1299 ft 93 kts 91°
2026-04-28 19:39 43.10695 -76.17095 1150 ft 97 kts 95°
2026-04-28 19:40 43.10691 -76.16200 1054 ft 94 kts 93°
2026-04-28 19:40 43.10759 -76.15345 952 ft 87 kts 103°
2026-04-28 19:40 43.10745 -76.14589 810 ft 78 kts 90°
2026-04-28 19:40 43.10801 -76.13830 675 ft 84 kts 104°
2026-04-28 19:41 43.10819 -76.12996 534 ft 87 kts 101°
2026-04-28 19:41 43.10854 -76.12260 421 ft 70 kts 95°
2026-04-28 19:41 43.10842 -76.11679 413 ft 55 kts 88°
2026-04-28 19:41 43.10844 -76.11233 411 ft 41 kts 86°
2026-04-28 19:42 43.10856 -76.10904 416 ft 30 kts 83°
2026-04-28 19:42 43.10858 -76.10681 411 ft 18 kts 87°
2026-04-28 19:42 43.10795 -76.10553 408 ft 3 kts 179°
2026-04-28 19:44 43.10723 -76.10545 409 ft 19 kts 170°
2026-04-28 19:44 43.10642 -76.10658 412 ft 25 kts 267°
2026-04-28 19:44 43.10637 -76.10938 412 ft 23 kts 268°
2026-04-28 19:44 43.10634 -76.11137 415 ft 20 kts 270°
2026-04-28 19:45 43.10674 -76.11289 414 ft 19 kts 356°
2026-04-28 19:45 43.10733 -76.11413 415 ft 19 kts 265°
2026-04-28 19:45 43.10729 -76.11603 414 ft 22 kts 267°
2026-04-28 19:45 43.10680 -76.11784 417 ft 3 kts 278°
2026-04-28 19:46 43.10680 -76.11785 417 ft 0 kts 282°